"Pseudo-MPEC" for CAR5502

Created 2024 Sep 6 13:22:07 UT using Find_Orb

Click here for an explanation of pseudo-MPECs

 
 Astrometry: 
     CAR5502*1C2024 09 04.33737723 33 16.132-12 56 49.31   ~949M 20.06GVNEOCPG96
     CAR5502 1C2024 09 04.34856323 33 16.618-12 53 01.21   ~949M 20.44GVNEOCPG96
     CAR5502 1C2024 09 04.35416523 33 16.902-12 51 07.24   ~949M 20.14GVNEOCPG96
     CAR5502  C2024 09 04.39098923 33 18.168-12 38 33.28   ~94A7 20.4 GVNEOCPH01
     CAR5502  C2024 09 04.39468323 33 18.354-12 37 17.48   ~94A7 20.2 GVNEOCPH01
     CAR5502  C2024 09 04.40453523 33 18.868-12 33 55.10   ~94A7 20.6 GVNEOCPH01
     CAR5502  C2024 09 04.41329723 33 19.327-12 30 55.00   ~94A7 20.1 GVNEOCPH01
     CAR5502 KC2024 09 04.43220523 33 20.761-12 24 25.67   ~94Aq 21.34GVNEOCPI52
     CAR5502 KC2024 09 04.43447623 33 20.833-12 23 38.26   ~94Aq 20.09GVNEOCPI52
     CAR5502 KC2024 09 04.43561523 33 20.851-12 23 12.77   ~94Aqx20.09GVNEOCPI52
     CAR5502 1C2024 09 04.97716 23 34 19.31 -09 19 20.6    ~95MM 21.4 VXNEOCP033
     CAR5502 1C2024 09 04.97801 23 34 19.37 -09 19 03.1    ~95MM 21.5 VXNEOCP033
     CAR5502 1C2024 09 04.97886 23 34 19.41 -09 18 46.1    ~95MM 21.0 VXNEOCP033
     CAR5502 KC2024 09 05.24402123 34 47.78 -07 48 20.8    ~95C7 20.6 GXNEOCP858
     CAR5502 KC2024 09 05.25008423 34 48.10 -07 46 17.5    ~95C7 20.5 GXNEOCP858
     CAR5502 KC2024 09 05.25608723 34 48.35 -07 44 15.8    ~95C7 20.2 GXNEOCP858
     CAR5502 KC2024 09 05.29259223 34 50.675-07 31 49.19   ~95CM 20.45GVNEOCPI52
     CAR5502 KC2024 09 05.29362323 34 50.686-07 31 29.86   ~95CM 20.54GVNEOCPI52
     CAR5502 KC2024 09 05.29398 23 34 48.574-07 31 34.21   ~957q 21.0 GVNEOCPH36
     CAR5502 KC2024 09 05.29466923 34 50.725-07 31 07.86   ~95CM 21.07GVNEOCPI52
     CAR5502 KC2024 09 05.29570223 34 50.783-07 30 47.12   ~95CM 20.31GVNEOCPI52
     CAR5502 KC2024 09 05.30464 23 34 49.001-07 27 58.10   ~957q 20.8 GVNEOCPH36

Station data:
(033) Karl Schwarzschild Observatory, Tautenburg  (N50.980139 E11.711240)
   Germany.  Observer B. Stecklum. 1.34-m f/3 Schmidt + CCD.
(858) Tebbutt Observatory, Edgewood  (N35.093869 W106.220000)  US/New Mexico.
    Observer F. B. Zoltowski. 0.16-m refractor + CCD0.51-m Schmidt-Cassegrain
   + CCD.
(G96) Mt. Lemmon Survey  (N32.442729 W110.788720)  US/Arizona.  Observer E.
   J. Christensen. 1.5-m reflector + 10K CCD.
(H01) Magdalena Ridge Observatory, Socorro  (N33.984833 W107.189333)  US/New
   Mexico.  Observers W. H. Ryan, E. V. Ryan. Measurer W. H. Ryan. 2.4-m
   f/8.9 reflector + CCD.
(H36) Sandlot Observatory, Scranton  (N38.797718 W95.706550)  US/Kansas.
   Observer G. Hug. 0.56-m reflector + CCD.
(I52) Steward Observatory, Mt. Lemmon Station  (N32.442570 W110.788920)
   US/Arizona.  Observers T. A. Pruyne, B. M. Africano, E. J. Christensen, G.
   A. Farneth, D. C. Fuls, A. R. Gibbs, A. D. Grauer, H. Gröller, J. A.
   Johnson, R. A. Kowalski, S. M. Larson, G. J. Leonard, D. Rankin, R. L.
   Seaman, F. C. Shelly, K. W. Wierzchoś. 1.0-m prime focus + CCD.

Orbital elements:  CAR5502
   Perihelion 2024 Sep 2.06019 +/- 0.0404 TT =  1:26:40 (JD 2460555.56019)
Epoch 2024 Sep  5.0 TT = JDT 2460558.5   Earth MOID: 0.0587      AutoNEOCP
M   0.88543827 +/- 0.016            (J2000 ecliptic)
n   0.30118847 +/- 0.00298          Peri.  355.46614 +/- 0.044
a   2.20416355 +/- 0.0144           Node   344.27702 +/- 0.0023
e   0.5163785 +/- 0.00306           Incl.   14.50220 +/- 0.055
P   3.27240                H 26.21  G  0.15   U  8.8
q 1.06598074 +/- 0.000267    Q 3.34234635 +/- 0.0285
21 of 22 observations 2024 Sept. 4-5 (23.2 hr); mean residual 0".37
Residuals in arcseconds: 
240904 G96  .08+  .70+    240904 I52  .26-  .12-    240905 I52  .07+  .91+    
240904 G96  .22-  .16-    240904 I52( .92-  2.0+)   240905 I52  .42-  .67-    
240904 G96  .20+  .92-    240904 033  .24-  .05+    240905 H36  .53+  .19+    
240904 H01  .02-  .29+    240904 033  .05-  .23+    240905 I52  .49-  .13+    
240904 H01  .05-  .25+    240904 033  .16-  .10-    240905 I52  .28-  .08-    
240904 H01  .01+  .31+    240905 858  .12+  .40-    240905 H36  .21-  .13-    
240904 H01  .10-  .39+    240905 858  .57+  .00     
240904 I52  .51+  .85-    240905 858  .10+  .00     

Ephemerides (geocentric):
Date (UTC) HH   RA             Dec           delta  r     elong  mag " sig PA
---- --------  ------------   ------------  ------ ------ -----  --- --------
2024 09 06 13  23 36 41.204   -00 34 55.68  .06038 1.0673 169.5 20.9 1.35  30
2024 09 06 14  23 36 44.814   -00 21 23.36  .06044 1.0674 169.4 20.9 1.43  29
2024 09 06 15  23 36 48.414   -00 07 52.54  .06049 1.0674 169.3 20.9 1.52  28
2024 09 06 16  23 36 52.006   +00 05 36.76  .06055 1.0674 169.2 20.9 1.60  27
2024 09 06 17  23 36 55.588   +00 19 04.51  .06061 1.0674 169.1 20.9 1.69  26
2024 09 06 18  23 36 59.162   +00 32 30.69  .06066 1.0675 169.0 20.9 1.78  26
2024 09 06 19  23 37 02.726   +00 45 55.28  .06072 1.0675 168.9 20.9 1.87  25
2024 09 06 20  23 37 06.281   +00 59 18.26  .06078 1.0675 168.8 20.9 1.96  24
2024 09 06 21  23 37 09.826   +01 12 39.60  .06085 1.0675 168.7 21.0 2.06  24
2024 09 06 22  23 37 13.363   +01 25 59.29  .06091 1.0676 168.5 21.0 2.15  23
2024 09 06 23  23 37 16.891   +01 39 17.29  .06097 1.0676 168.4 21.0 2.25  23
2024 09 07 00  23 37 20.410   +01 52 33.60  .06103 1.0676 168.3 21.0 2.35  22
2024 09 07 01  23 37 23.919   +02 05 48.18  .06110 1.0676 168.2 21.0 2.45  22
2024 09 07 02  23 37 27.420   +02 19 01.03  .06117 1.0677 168.1 21.0 2.56  21
2024 09 07 03  23 37 30.912   +02 32 12.11  .06123 1.0677 167.9 21.0 2.66  21
2024 09 07 04  23 37 34.395   +02 45 21.41  .06130 1.0677 167.8 21.0 2.77  21
2024 09 07 05  23 37 37.869   +02 58 28.91  .06137 1.0678 167.7 21.0 2.87  20
2024 09 07 06  23 37 41.335   +03 11 34.58  .06144 1.0678 167.5 21.0 2.98  20
2024 09 07 07  23 37 44.791   +03 24 38.42  .06151 1.0678 167.4 21.0 3.09  20
2024 09 07 08  23 37 48.239   +03 37 40.40  .06158 1.0678 167.3 21.0 3.20  19
2024 09 07 09  23 37 51.678   +03 50 40.50  .06166 1.0679 167.1 21.0 3.32  19
2024 09 07 10  23 37 55.108   +04 03 38.70  .06173 1.0679 167.0 21.0 3.43  19
2024 09 07 11  23 37 58.529   +04 16 35.00  .06180 1.0679 166.8 21.1 3.55  18
2024 09 07 12  23 38 01.942   +04 29 29.36  .06188 1.0680 166.7 21.1 3.66  18
2024 09 07 13  23 38 05.346   +04 42 21.77  .06196 1.0680 166.6 21.1 3.78  18
2024 09 07 14  23 38 08.742   +04 55 12.22  .06203 1.0680 166.4 21.1 3.90  18
2024 09 07 15  23 38 12.129   +05 08 00.69  .06211 1.0681 166.3 21.1 4.02  17
2024 09 07 16  23 38 15.507   +05 20 47.16  .06219 1.0681 166.1 21.1 4.14  17
2024 09 07 17  23 38 18.877   +05 33 31.62  .06227 1.0681 166.0 21.1 4.27  17
2024 09 07 18  23 38 22.238   +05 46 14.05  .06235 1.0682 165.8 21.1 4.39  17
2024 09 07 19  23 38 25.591   +05 58 54.44  .06243 1.0682 165.7 21.1 4.52  17
2024 09 07 20  23 38 28.935   +06 11 32.76  .06252 1.0682 165.5 21.1 4.64  16
2024 09 07 21  23 38 32.271   +06 24 09.02  .06260 1.0682 165.4 21.1 4.77  16
2024 09 07 22  23 38 35.599   +06 36 43.18  .06268 1.0683 165.3 21.1 4.90  16
2024 09 07 23  23 38 38.918   +06 49 15.25  .06277 1.0683 165.1 21.1 5.03  16
2024 09 08 00  23 38 42.229   +07 01 45.19  .06286 1.0683 165.0 21.2 5.16  16
2024 09 08 01  23 38 45.531   +07 14 13.01  .06294 1.0684 164.8 21.2 5.30  16
2024 09 08 02  23 38 48.825   +07 26 38.69  .06303 1.0684 164.7 21.2 5.43  15
2024 09 08 03  23 38 52.111   +07 39 02.21  .06312 1.0684 164.5 21.2 5.56  15
2024 09 08 04  23 38 55.388   +07 51 23.57  .06321 1.0685 164.3 21.2 5.70  15
2024 09 08 05  23 38 58.658   +08 03 42.74  .06330 1.0685 164.2 21.2 5.84  15
2024 09 08 06  23 39 01.919   +08 15 59.73  .06339 1.0686 164.0 21.2 5.97  15
2024 09 08 07  23 39 05.172   +08 28 14.51  .06349 1.0686 163.9 21.2 6.11  15
2024 09 08 08  23 39 08.416   +08 40 27.08  .06358 1.0686 163.7 21.2 6.25  15
2024 09 08 09  23 39 11.653   +08 52 37.42  .06367 1.0687 163.6 21.2 6.39  14
2024 09 08 10  23 39 14.882   +09 04 45.53  .06377 1.0687 163.4 21.2 6.53  14
2024 09 08 11  23 39 18.102   +09 16 51.39  .06387 1.0687 163.3 21.2 6.67  14
2024 09 08 12  23 39 21.314   +09 28 55.00  .06396 1.0688 163.1 21.3 6.82  14